Location: Albany
(35.0170°S, 117.8920°E)
Time: 02:03:08
(UTC+08:00)

Explorer 7 - Pass Details

Date: 28 January 2021
Orbit: 484 x 677 km, 50.3° (Epoch: 01 March)

Event Time Altitude Azimuth Distance (km) Brightness Sun altitude
Rises 21:49:18 0° 233° (SW) 2,899 11.8 -25.8°
Reaches altitude 10° 21:51:42 10° 236° (SW) 1,956 10.6 -26.1°
Enters shadow 21:55:10 48° 262° (W) 768 7.7 -26.6°
Maximum altitude 21:56:07 62° 316° (NW) 648 - -26.7°
Drops below altitude 10° 22:00:12 10° 36° (NE) 1,813 - -27.2°
Sets 22:02:22 0° 40° (NE) 2,668 - -27.5°
